Location: Apollinopolis Magna
(24.9792°N, 32.8772°E)
Time: 03:49:24
(UTC+00:00)

Cosmos 2366 rocket - Pass Details

Date: 02 March 2021
Orbit: 954 x 997 km, 82.9° (Epoch: 12 April)

Event Time Altitude Azimuth Distance (km) Brightness Sun altitude
Rises 17:49:10 0° 191° (S) 3,660 7.1 -27.5°
Reaches altitude 10° 17:51:40 10° 193° (SSW) 2,721 6.4 -28.1°
Maximum altitude 17:57:52 67° 276° (W) 1,064 4.3 -29.5°
Drops below altitude 10° 18:04:09 10° 358° (N) 2,757 6.4 -30.9°
Sets 18:06:43 0° 1° (N) 3,711 7.1 -31.4°
